Regional Weather Roundup
Issued by NWS

Home | Current Version | Previous Version | Graphics & Text | Print | Product List | Glossary Off
Versions: 1 2 3 4 5 6 7 8 9 10 11 12 13 14 15 16 17 18 19 20 21 22 23 24 25 26 27 28 29 30 31 32 33 34 35 36 37 38 39 40 41 42 43 44 45 46 47 48 49 50

000
ASUS43 KDMX 242206
RWRIA

WEATHER ROUNDUP FOR IOWA
NATIONAL WEATHER SERVICE DES MOINES IA
500 PM CDT WED MAY 24 2017

NOTE: "FAIR" INDICATES FEW OR NO CLOUDS BELOW 12,000 FEET WITH NO
SIGNIFICANT WEATHER AND/OR OBSTRUCTIONS TO VISIBILITY.

* - THESE STATIONS ARE NOT NWS STATIONS...THUS NOT UNDER NWS
QUALITY CONTROL.  THEY ALSO DO NOT REPORT WEATHER SUCH
AS PRECIPITATION OR FOG.

IAZ001>003-012>014-020>022-031>034-043>046-242300-
   NORTHWEST IOWA

CITY           SKY/WX    TMP DP  RH WIND       PRES   REMARKS
CARROLL *      MOSUNNY   64  46  52 N6G13     29.68S
CHEROKEE *     CLOUDY    63  44  51 NE3       29.69F
DENISON *      PTSUNNY   63  45  51 CALM      29.70S
LE MARS *      CLOUDY    63  45  51 CALM      29.70S
ORANGE CITY *  CLOUDY    63  45  51 NE5       29.69F
SHELDON *      CLOUDY    63  43  48 NE5G15    29.68F
SIOUX CITY     CLOUDY    65  45  48 SE5       29.69F
SPENCER        CLOUDY    60  45  57 N7        29.70F
STORM LAKE *     N/A     61  41  48 NE6       29.69S
$$

IAZ055>058-069>071-079>083-090>094-242300-
   SOUTHWEST IOWA

CITY           SKY/WX    TMP DP  RH WIND       PRES   REMARKS
ATLANTIC *     CLOUDY    63  46  55 NE10      29.68S
AUDUBON *      MOSUNNY   63  46  55 N7        29.69S
CLARINDA *     PTSUNNY   66  46  48 N9        29.70S
COUNCIL BLFS * MOSUNNY   64  45  48 CALM      29.69S
CRESTON *      CLOUDY    61  48  63 N10       29.69S
HARLAN  *      PTSUNNY   64  45  48 CALM      29.71S
LAMONI         CLOUDY    62  52  69 N8        29.67S
RED OAK *      PTSUNNY   64  46  52 E7        29.68S
SHENANDOAH *   CLOUDY    66  45  45 VRB6      29.69S
$$

IAZ047>049-059>061-072>074-084-242300-
   CENTRAL IOWA

CITY           SKY/WX    TMP DP  RH WIND       PRES   REMARKS
AMES           CLOUDY    61  50  67 N10       29.67F
ANKENY *       PTSUNNY   63  52  67 N10       29.68S
BOONE *        PTSUNNY   63  50  63 NE12      29.67S
CHARITON *     PTSUNNY   61  52  72 N7        29.66S
DES MOINES     PTSUNNY   63  49  60 N9        29.67S
GRINNELL*      MOSUNNY   61  49  64 NE12      29.67F
KNOXVILLE *    CLOUDY    61  48  63 N10       29.65S
MARSHALLTOWN   CLOUDY    62  50  64 NE15      29.66F
NEWTON *       CLOUDY    59  50  72 N13       29.66S
PELLA *        PTSUNNY   62  48  61 N8        29.67S
PERRY *        PTSUNNY   64  48  54 N9        29.68S
$$

IAZ004>006-015-016-023>025-035-036-242300-
   NORTH CENTRAL IOWA

CITY           SKY/WX    TMP DP  RH WIND       PRES   REMARKS
ALGONA *       MOSUNNY   61  46  59 VRB5      29.69F
CLARION *      CLOUDY    63  50  63 N12       29.68S
ESTHERVILLE    CLOUDY    58  48  69 N8        29.70F
FORT DODGE *   MOSUNNY   63  48  59 N7        29.69S
MASON CITY     PTSUNNY   62  48  60 N7        29.69F
FOREST CITY *    N/A     63  41  45 CALM      29.68F
WEBSTER CITY * PTSUNNY   64  48  55 NE9       29.66S
IOWA FALLS *   CLOUDY    61  50  67 N8        29.69S
$$

IAZ007>011-017>019-026>030-037>042-050>054-066-242300-
   NORTHEAST IOWA

CITY           SKY/WX    TMP DP  RH WIND       PRES   REMARKS
CEDAR RAPIDS   CLOUDY    59  51  75 N10       29.64S
CHARLES CITY * CLOUDY    61  48  63 N9        29.68S
CLINTON *      CLOUDY    59  54  83 N13       29.62S
DECORAH *      PTSUNNY   59  50  72 NE7G13    29.66S
DUBUQUE        CLOUDY    58  50  75 N8        29.64R
MONTICELLO *   CLOUDY    61  52  72 VRB7G15   29.63S
OELWEIN *      CLOUDY    59  52  77 NE10      29.67S
WATERLOO       CLOUDY    60  50  69 NE8       29.66S
$$

IAZ064-065-067-068-078-242300-
   EAST CENTRAL IOWA

CITY           SKY/WX    TMP DP  RH WIND       PRES   REMARKS
DAVENPORT      CLOUDY    60  51  72 NE15      29.62S
IOWA CITY      PTSUNNY   65  50  58 N10       29.64F
MT. PLEASANT * PTSUNNY   62  50  66 N14       29.62S
MUSCATINE *    CLOUDY    63  50  63 N9        29.62S
QUAD CITIES    PTSUNNY   62  51  67 N9        29.60S
$$

IAZ062-063-075>077-085>089-095>099-242300-
   SOUTHEAST IOWA

CITY           SKY/WX    TMP DP  RH WIND       PRES   REMARKS
BURLINGTON     MOSUNNY   65  52  62 N13       29.59S
FAIRFIELD *    SUNNY     63  48  59 N15       29.63R
FORT MADISON * MOSUNNY   64  52  63 N15       29.61S
KEOKUK *       CLOUDY    63  54  72 N10       29.60S
OSKALOOSA *    CLOUDY    61  49  63 N14       29.65S
CENTERVILLE *    N/A     63  50  63 N16G24    29.66S
OTTUMWA        MOSUNNY   62  48  60 N17       29.64S
WASHINGTON *   CLOUDY    63  50  63 N17       29.64S
$$

ABBREVIATIONS USED IN REMARKS
   TC - TEMPERATURES IN CELSIUS
  WCI - WIND CHILL INDEX
   HX - HEAT INDEX
  VSB - VISIBILITY
$$




USA.gov is the U.S. government's official web portal to all federal, state and local government web resources and services.